"Pseudo-MPEC" for P21Oj7o

Created 2023 Nov 30 6:22:06 UT using Find_Orb

Click here for an explanation of pseudo-MPECs

 
 Astrometry: 
     P21Oj7o* C2023 11 18fW0ceUAstrometry-HT^Tiredacted;G45AYSV`U%v#)Semn)4L:F52
     P21Oj7o  C2023 11 18QkI^nXvHGw6\?J5EOT_1iYv6'Y$-M/ywnmUDoB`8a0(`61nv7%?JF52
     P21Oj7o  C2023 11 18!/R44_bC89k_n6/JXos%x3od'E!,daN2ubq]_click0PQIDAXHyMF52
     P21Oj7o  C2023 11 18eL,=_'@G]Lfcg:ubVF;0PFZOg8w@@FLZ+(;K*xQpad6[@]here[5F52
     P21Oj7o KC2023 11 19me\Mn#@Fx:bDfv*I8/SjaIRY3h:-%OBs;X/6@/4Zr2!HpJ:W+A7mH21
     P21Oj7o KC2023 11 19Y;_Dv2_U2Ik-XYg*kB-forbF!B#`c]Qc*1X^J#[\explanationjH21

Station data:
(F52) Pan-STARRS 2, Haleakala  (N20.707382 W156.255910)  US/Hawaii.
   Observers J. Bulger, T. Dukes, T. Lowe, A. Schultz, M. Willman. Measurers
   K. Chambers, S. Chastel, T. de Boer, L. Denneau, J. Fairlamb, H.
   Flewelling, M. Huber, C.-C. Lin, E. Magnier, Y. Ramanjooloo, R. Wainscoat,
   R. Weryk. 1.8-m Ritchey-Chrétien + CCD.
(H21) Astronomical Research Observatory, Westfield  (N39.483054 W87.968270)
   US/Illinois.  Observer R. Holmes. Measurers S. Foglia, L. Buzzi, T.
   Linder, R. Holmes. 0.76-m f/3.0 astrograph + CCD0.81-m f/4.0 astrograph +
   CCD0.61-m f/4.5 astrograph + CCD0.40-m f/5.32 astrograph + CCD.

Orbital elements:  P21Oj7o
   Perihelion 2024 Jun 5.93529 +/- 259 TT = 22:26:49 (JD 2460467.43529)
Epoch 2023 Nov 19.0 TT = JDT 2460267.5   Earth MOID: 0.6491      AutoNEOCP
M 297.06536371 +/- 90               (J2000 ecliptic)
n   0.31477502 +/- 0.0701           Peri.   60.88646 +/- 60
a   2.14027314 +/- 0.318            Node    88.86701 +/- 11
e   0.2914880 +/- 0.173             Incl.   27.61129 +/- 6
P   3.13                   H 19.40  G  0.15   U 11.0  SR
q 1.51640903 +/- 0.212    Q 2.76413724 +/- 0.861
From 6 observations 2023 Nov. 18-19 (19.5 hr); mean residual 0".19
Residuals in arcseconds: 
231118 F52  .20+  .19-    231118 F52  .19-  .05-    231119 H21  .17-  .26+    
231118 F52  .09+  .30+    231118 F52  .11-  .07-    231119 H21  .23+  .26-    

Ephemerides (geocentric):
Date (UTC) HH   RA             Dec           delta  r     elong  mag " sig PA
---- --------  ------------   ------------  ------ ------ -----  --- --------
2023 11 30 06  03 47 34.447   -07 37 10.55  1.0703 1.9848 149.6 21.9  934  57
2023 11 30 07  03 47 30.522   -07 36 40.02  1.0702 1.9847 149.6 21.9  941  57
2023 11 30 08  03 47 26.598   -07 36 09.44  1.0702 1.9845 149.6 21.9  947  57
2023 11 30 09  03 47 22.674   -07 35 38.81  1.0701 1.9844 149.6 21.9  954  57
2023 11 30 10  03 47 18.750   -07 35 08.14  1.0700 1.9842 149.5 21.9  961  57
2023 11 30 11  03 47 14.827   -07 34 37.41  1.0700 1.9841 149.5 21.9  968  57
2023 11 30 12  03 47 10.905   -07 34 06.64  1.0699 1.9839 149.5 21.9  975  57
2023 11 30 13  03 47 06.983   -07 33 35.81  1.0698 1.9838 149.5 21.9  982  57
2023 11 30 14  03 47 03.062   -07 33 04.94  1.0697 1.9836 149.5 21.9  989  57
2023 11 30 15  03 46 59.141   -07 32 34.02  1.0697 1.9835 149.5 21.9  996  56
2023 11 30 16  03 46 55.220   -07 32 03.04  1.0696 1.9833 149.4 21.9 1002  56
2023 11 30 17  03 46 51.301   -07 31 32.02  1.0695 1.9832 149.4 21.9 1009  56
2023 11 30 18  03 46 47.381   -07 31 00.95  1.0695 1.9830 149.4 21.9 1016  56
2023 11 30 19  03 46 43.463   -07 30 29.83  1.0694 1.9829 149.4 21.9 1024  56
2023 11 30 20  03 46 39.545   -07 29 58.66  1.0693 1.9827 149.4 21.9 1031  56
2023 11 30 21  03 46 35.627   -07 29 27.44  1.0693 1.9826 149.4 21.9 1038  56
2023 11 30 22  03 46 31.710   -07 28 56.18  1.0692 1.9824 149.3 21.9 1045  56
2023 11 30 23  03 46 27.794   -07 28 24.86  1.0691 1.9823 149.3 21.9 1052  56
2023 12 01 00  03 46 23.878   -07 27 53.49  1.0691 1.9821 149.3 21.9 1059  56
2023 12 01 01  03 46 19.963   -07 27 22.08  1.0690 1.9820 149.3 21.9 1066  56
2023 12 01 02  03 46 16.048   -07 26 50.61  1.0689 1.9818 149.3 21.9 1073  56
2023 12 01 03  03 46 12.134   -07 26 19.10  1.0689 1.9817 149.3 21.9 1081  56
2023 12 01 04  03 46 08.221   -07 25 47.54  1.0688 1.9815 149.2 21.9 1088  56
2023 12 01 05  03 46 04.308   -07 25 15.93  1.0688 1.9814 149.2 21.9 1095  56
2023 12 01 06  03 46 00.396   -07 24 44.27  1.0687 1.9812 149.2 21.9 1102  56
2023 12 01 07  03 45 56.485   -07 24 12.56  1.0686 1.9811 149.2 21.9 1110  56
2023 12 01 08  03 45 52.574   -07 23 40.80  1.0686 1.9809 149.2 21.9 1117  56
2023 12 01 09  03 45 48.664   -07 23 09.00  1.0685 1.9808 149.2 21.9 1124  56
2023 12 01 10  03 45 44.755   -07 22 37.14  1.0684 1.9806 149.1 21.9 1132  56
2023 12 01 11  03 45 40.846   -07 22 05.24  1.0684 1.9805 149.1 21.9 1139  56
2023 12 01 12  03 45 36.938   -07 21 33.29  1.0683 1.9803 149.1 21.9 1147  56
2023 12 01 13  03 45 33.031   -07 21 01.29  1.0683 1.9802 149.1 21.9 1154  56
2023 12 01 14  03 45 29.124   -07 20 29.24  1.0682 1.9800 149.1 21.9 1162  56
2023 12 01 15  03 45 25.219   -07 19 57.14  1.0681 1.9799 149.0 21.9 1169  56
2023 12 01 16  03 45 21.314   -07 19 24.99  1.0681 1.9797 149.0 21.9 1177  56
2023 12 01 17  03 45 17.409   -07 18 52.79  1.0680 1.9796 149.0 21.9 1184  56
2023 12 01 18  03 45 13.506   -07 18 20.55  1.0680 1.9794 149.0 21.9 1192  56
2023 12 01 19  03 45 09.603   -07 17 48.26  1.0679 1.9793 149.0 21.9 1199  56
2023 12 01 20  03 45 05.701   -07 17 15.91  1.0679 1.9791 149.0 21.9 1207  56
2023 12 01 21  03 45 01.800   -07 16 43.52  1.0678 1.9790 148.9 21.9 1214  56
2023 12 01 22  03 44 57.900   -07 16 11.09  1.0678 1.9788 148.9 21.9 1222  56
2023 12 01 23  03 44 54.000   -07 15 38.60  1.0677 1.9787 148.9 21.9 1230  56
2023 12 02 00  03 44 50.101   -07 15 06.06  1.0676 1.9785 148.9 21.9 1237  56
2023 12 02 01  03 44 46.203   -07 14 33.48  1.0676 1.9784 148.9 21.9 1245  56
2023 12 02 02  03 44 42.306   -07 14 00.85  1.0675 1.9782 148.8 21.9 1253  56
2023 12 02 03  03 44 38.410   -07 13 28.17  1.0675 1.9781 148.8 21.9 1261  56
2023 12 02 04  03 44 34.515   -07 12 55.44  1.0674 1.9779 148.8 21.9 1268  56
2023 12 02 05  03 44 30.620   -07 12 22.66  1.0674 1.9778 148.8 21.9 1276  56